• En España
  • Lista de países
  • Para 7 días
  • Temperatura del agua
  • Mapa Satelital
  • El tiempo en el mapa
  • Informadores
  • user-avatar
    Iniciar sesión

    Tiempo cada hora Pazardzhik

    Hoy, 26 Septiembre, Miércoles

    Tiempo Temperatura Precipitaciones Viento Presión Humedad
    00:00 +8°C° 0 mm 2 mps 754 mmHg 56%
    01:00 +7°C° 0 mm 2 mps 754 mmHg 58%
    02:00 +8°C° 0 mm 1 mps 754 mmHg 60%
    03:00 +8°C° 0 mm 1 mps 755 mmHg 62%
    04:00 +7°C° 0 mm 1 mps 755 mmHg 63%
    05:00 +7°C° 0 mm 1 mps 755 mmHg 65%
    06:00 +8°C° 0 mm 1 mps 755 mmHg 61%
    07:00 +8°C° 0 mm 2 mps 755 mmHg 56%
    08:00 +10°C° 0 mm 2 mps 756 mmHg 52%
    09:00 +12°C° 0 mm 2 mps 756 mmHg 47%
    10:00 +14°C° 0 mm 2 mps 755 mmHg 42%
    11:00 +16°C° 0 mm 3 mps 755 mmHg 37%
    12:00 +16°C° 0 mm 3 mps 755 mmHg 36%
    13:00 +16°C° 0 mm 3 mps 755 mmHg 35%
    14:00 +17°C° 0 mm 3 mps 754 mmHg 34%
    15:00 +16°C° 0 mm 3 mps 754 mmHg 36%
    16:00 +14°C° 0 mm 3 mps 754 mmHg 38%
    17:00 +14°C° 0 mm 3 mps 754 mmHg 40%
    18:00 +12°C° 0 mm 3 mps 754 mmHg 46%
    19:00 +10°C° 0 mm 2 mps 754 mmHg 52%
    20:00 +8°C° 0 mm 2 mps 755 mmHg 58%
    21:00 +8°C° 0 mm 2 mps 755 mmHg 61%
    22:00 +8°C° 0 mm 1 mps 755 mmHg 63%
    23:00 +8°C° 0 mm 1 mps 756 mmHg 65%

    Mañana, 27 Septiembre, Jueves

    Tiempo Temperatura Precipitaciones Viento Presión Humedad
    00:00 +7°C° 0 mm 1 mps 756 mmHg 66%
    01:00 +7°C° 0 mm 1 mps 755 mmHg 66%
    02:00 +7°C° 0 mm 1 mps 755 mmHg 66%
    03:00 +5°C° 0 mm 2 mps 755 mmHg 66%
    04:00 +5°C° 0 mm 2 mps 755 mmHg 65%
    05:00 +5°C° 0 mm 2 mps 755 mmHg 65%
    06:00 +6°C° 0 mm 2 mps 755 mmHg 58%
    07:00 +8°C° 0 mm 2 mps 755 mmHg 51%
    08:00 +10°C° 0 mm 2 mps 754 mmHg 45%
    09:00 +13°C° 0 mm 2 mps 754 mmHg 39%
    10:00 +15°C° 0 mm 2 mps 754 mmHg 33%
    11:00 +17°C° 0 mm 2 mps 754 mmHg 27%
    12:00 +18°C° 0 mm 2 mps 753 mmHg 25%
    13:00 +19°C° 0 mm 2 mps 752 mmHg 24%
    14:00 +20°C° 0 mm 2 mps 751 mmHg 22%
    15:00 +19°C° 0 mm 2 mps 751 mmHg 23%
    16:00 +18°C° 0 mm 2 mps 751 mmHg 25%
    17:00 +18°C° 0 mm 2 mps 750 mmHg 27%
    18:00 +15°C° 0 mm 1 mps 750 mmHg 31%
    19:00 +13°C° 0 mm 1 mps 751 mmHg 36%
    20:00 +11°C° 0 mm 1 mps 751 mmHg 41%
    21:00 +10°C° 0 mm 1 mps 751 mmHg 41%
    22:00 +10°C° 0 mm 1 mps 751 mmHg 42%
    23:00 +9°C° 0 mm 1 mps 751 mmHg 42%

    Pasado mañana, 28 Septiembre, Viernes

    Tiempo Temperatura Precipitaciones Viento Presión Humedad
    00:00 +9°C° 0 mm 1 mps 751 mmHg 42%
    01:00 +9°C° 0 mm 1 mps 750 mmHg 42%
    02:00 +9°C° 0 mm 1 mps 750 mmHg 42%
    03:00 +9°C° 0 mm 1 mps 750 mmHg 42%
    04:00 +9°C° 0 mm 1 mps 749 mmHg 41%
    05:00 +9°C° 0 mm 1 mps 749 mmHg 41%
    06:00 +10°C° 0 mm 1 mps 749 mmHg 38%
    07:00 +12°C° 0 mm 1 mps 749 mmHg 35%
    08:00 +14°C° 0 mm 1 mps 748 mmHg 32%
    09:00 +16°C° 0 mm 1 mps 748 mmHg 28%
    10:00 +19°C° 0 mm 1 mps 748 mmHg 24%
    11:00 +21°C° 0 mm 2 mps 747 mmHg 21%
    12:00 +21°C° 0 mm 2 mps 747 mmHg 20%
    13:00 +23°C° 0 mm 2 mps 746 mmHg 20%
    14:00 +24°C° 0 mm 2 mps 745 mmHg 20%
    15:00 +23°C° 0 mm 2 mps 745 mmHg 22%
    16:00 +23°C° 0 mm 2 mps 744 mmHg 25%
    17:00 +21°C° 0 mm 2 mps 744 mmHg 28%
    18:00 +20°C° 0 mm 1 mps 744 mmHg 31%
    19:00 +18°C° 0 mm 1 mps 744 mmHg 35%
    20:00 +15°C° 0 mm 1 mps 744 mmHg 39%
    21:00 +15°C° 0 mm 1 mps 744 mmHg 41%
    22:00 +14°C° 0 mm 1 mps 744 mmHg 42%
    23:00 +14°C° 0 mm 1 mps 743 mmHg 44%

    29 Septiembre, Sábado

    Tiempo Temperatura Precipitaciones Viento Presión Humedad
    00:00 +14°C° 0 mm 1 mps 743 mmHg 46%
    01:00 +14°C° 0 mm 1 mps 743 mmHg 47%
    02:00 +13°C° 0 mm 1 mps 743 mmHg 49%
    03:00 +14°C° 0 mm 1 mps 742 mmHg 51%
    04:00 +14°C° 0 mm 1 mps 742 mmHg 53%
    05:00 +14°C° 0 mm 1 mps 742 mmHg 54%
    06:00 +15°C° 0.1 mm 1 mps 742 mmHg 56%
    07:00 +15°C° 0.1 mm 1 mps 742 mmHg 57%
    08:00 +15°C° 0.1 mm 0 mps 742 mmHg 59%
    09:00 +19°C° 0.1 mm 1 mps 742 mmHg 56%
    10:00 +20°C° 0.1 mm 1 mps 742 mmHg 53%
    11:00 +22°C° 0.1 mm 1 mps 742 mmHg 51%
    12:00 +22°C° 0 mm 1 mps 742 mmHg 49%
    13:00 +23°C° 0 mm 1 mps 742 mmHg 48%
    14:00 +23°C° 0 mm 2 mps 741 mmHg 47%
    15:00 +23°C° 0 mm 2 mps 741 mmHg 50%
    16:00 +21°C° 0 mm 2 mps 741 mmHg 52%
    17:00 +21°C° 0 mm 2 mps 741 mmHg 55%
    18:00 +19°C° 0 mm 2 mps 741 mmHg 62%
    19:00 +19°C° 0 mm 1 mps 742 mmHg 69%
    20:00 +15°C° 0 mm 0 mps 742 mmHg 75%
    21:00 +16°C° 0.3 mm 1 mps 743 mmHg 76%
    22:00 +16°C° 0.3 mm 1 mps 743 mmHg 77%
    23:00 +16°C° 0.3 mm 1 mps 743 mmHg 78%

    30 Septiembre, Domingo

    Tiempo Temperatura Precipitaciones Viento Presión Humedad
    00:00 +16°C° 0.2 mm 1 mps 743 mmHg 79%
    01:00 +16°C° 0.2 mm 1 mps 743 mmHg 80%
    02:00 +16°C° 0.2 mm 1 mps 743 mmHg 81%
    03:00 +16°C° 0 mm 1 mps 743 mmHg 82%
    04:00 +16°C° 0 mm 1 mps 743 mmHg 82%
    05:00 +16°C° 0 mm 1 mps 744 mmHg 83%
    06:00 +16°C° 0.1 mm 1 mps 744 mmHg 81%
    07:00 +16°C° 0.1 mm 1 mps 744 mmHg 80%
    08:00 +18°C° 0.1 mm 1 mps 744 mmHg 79%
    09:00 +19°C° 0.2 mm 1 mps 744 mmHg 76%
    10:00 +20°C° 0.2 mm 1 mps 744 mmHg 73%
    11:00 +21°C° 0.2 mm 1 mps 744 mmHg 70%
    12:00 +20°C° 0.4 mm 1 mps 744 mmHg 72%
    13:00 +20°C° 0.4 mm 1 mps 744 mmHg 74%
    14:00 +19°C° 0.4 mm 1 mps 743 mmHg 77%
    15:00 +19°C° 0.2 mm 1 mps 743 mmHg 78%
    16:00 +19°C° 0.2 mm 1 mps 743 mmHg 79%
    17:00 +19°C° 0.2 mm 1 mps 743 mmHg 81%
    18:00 +18°C° 0.1 mm 1 mps 743 mmHg 83%
    19:00 +18°C° 0.1 mm 1 mps 744 mmHg 85%
    20:00 +16°C° 0.1 mm 1 mps 744 mmHg 88%
    21:00 +16°C° 0 mm 1 mps 744 mmHg 88%
    22:00 +16°C° 0 mm 1 mps 744 mmHg 89%
    23:00 +15°C° 0 mm 1 mps 744 mmHg 90%

    1 Octubre, Lunes

    Tiempo Temperatura Precipitaciones Viento Presión Humedad
    00:00 +15°C° 0 mm 1 mps 743 mmHg 90%
    01:00 +15°C° 0 mm 1 mps 743 mmHg 91%
    02:00 +15°C° 0 mm 1 mps 743 mmHg 91%
    03:00 +14°C° 0 mm 1 mps 743 mmHg 91%
    04:00 +14°C° 0 mm 1 mps 743 mmHg 91%
    05:00 +14°C° 0 mm 1 mps 742 mmHg 91%
    06:00 +15°C° 0 mm 1 mps 742 mmHg 87%
    07:00 +16°C° 0 mm 1 mps 742 mmHg 83%
    08:00 +19°C° 0 mm 1 mps 742 mmHg 79%
    09:00 +20°C° 0 mm 1 mps 742 mmHg 74%
    10:00 +21°C° 0 mm 1 mps 742 mmHg 68%
    11:00 +23°C° 0 mm 2 mps 742 mmHg 63%
    12:00 +23°C° 0.2 mm 2 mps 742 mmHg 62%
    13:00 +24°C° 0.2 mm 2 mps 741 mmHg 61%
    14:00 +24°C° 0.2 mm 2 mps 741 mmHg 60%
    15:00 +23°C° 1 mm 1 mps 741 mmHg 65%
    16:00 +23°C° 1 mm 1 mps 741 mmHg 69%
    17:00 +22°C° 1 mm 1 mps 740 mmHg 73%
    18:00 +21°C° 0.8 mm 1 mps 741 mmHg 77%
    19:00 +20°C° 0.8 mm 1 mps 741 mmHg 82%
    20:00 +19°C° 0.8 mm 1 mps 741 mmHg 86%
    21:00 +18°C° 0.5 mm 1 mps 741 mmHg 88%
    22:00 +18°C° 0.5 mm 1 mps 742 mmHg 89%
    23:00 +16°C° 0.5 mm 1 mps 742 mmHg 91%
    Mostrar más